Aktuell
News
Messwerte
Diagramme
Archiv
Vorhersage
Regen
Wettergefahren

Astro & Geo
Gesundheit
Pegel
Gästebuch
Kontakt
Impressum
Datenschutz
App

Stark bewölkt bei 20.9 °C – Luftdruck: 1011.9 hPa – Wind: SW 11.2 km/h
Messwerte von 09:09 Uhr; Warnsymbol: Datenbasis DWD; Wetterzustand powered by
Übersicht
Heute
Gestern
Vor 1 Jahr
Info
Heute – Der Tag im Rückblick
 
Messwerte von Sonntag, 05.07.2020 🏳️‍🌈
Symbol
Zeitpunkt
Wetter-
zustand
Zeitpunkt
Temperatur
gefühlt
Zeitpunkt
Luftfeuchte
Taupunkt
Zeitpunkt
Luftdruck
Zeitpunkt
Wind
Zeitpunkt
Windböen
Max 15 Min.
Wind-
richtung
Zeitpunkt
Regen
Summe 1 h
Regenrate
Max 15 Min.
UV-Index
Max 15 Min.
Pegel Köln
Zeitpunkt
Warnlage
Zeitpunkt
00:15 Leichter Regen4 18.9 °C
18.9 °C
80 %
15.3 °C
1013.7 hPa 6.5 km/h
2 Bft
16.2 km/h
3 Bft
SW -
0.0 mm/h
0.0 259 cm
00:30 Leichter Regen1 18.0 °C
18.0 °C
86 %
15.5 °C
1013.5 hPa 6.5 km/h
2 Bft
14.4 km/h
3 Bft
SSW -
0.0 mm/h
0.0 259 cm
00:45 Leichter Regen1 17.5 °C
17.5 °C
89 %
15.6 °C
1013.3 hPa 3.2 km/h
1 Bft
19.4 km/h
3 Bft
S -
0.0 mm/h
0.0 259 cm
01:00 Bedeckt2 17.7 °C
17.7 °C
90 %
15.9 °C
1013.3 hPa 1.4 km/h
1 Bft
9.7 km/h
2 Bft
SO 0.18 mm
0.0 mm/h
0.0 259 cm
01:15 Bedeckt2 17.8 °C
17.8 °C
90 %
16.0 °C
1013.3 hPa 1.4 km/h
1 Bft
4.7 km/h
1 Bft
SO -
0.0 mm/h
0.0 259 cm
01:30 Bedeckt2 18.0 °C
18.0 °C
88 %
15.8 °C
1013.2 hPa 1.4 km/h
1 Bft
6.5 km/h
2 Bft
S -
0.0 mm/h
0.0 260 cm
01:45 Bedeckt2 18.3 °C
18.3 °C
86 %
15.7 °C
1013.2 hPa 3.2 km/h
1 Bft
7.9 km/h
2 Bft
SW -
0.0 mm/h
0.0 259 cm
02:00 Bedeckt2 18.6 °C
18.6 °C
85 %
15.8 °C
1013.1 hPa 4.7 km/h
1 Bft
14.4 km/h
3 Bft
SW 0.00 mm
0.0 mm/h
0.0 259 cm
02:15 Bedeckt2 18.7 °C
18.7 °C
84 %
15.7 °C
1013.0 hPa 4.7 km/h
1 Bft
13.0 km/h
3 Bft
SSW -
0.0 mm/h
0.0 259 cm
02:30 Bedeckt2 18.8 °C
18.8 °C
83 %
15.7 °C
1012.9 hPa 4.7 km/h
1 Bft
13.0 km/h
3 Bft
SSW -
0.0 mm/h
0.0 259 cm
02:45 Bedeckt2 18.8 °C
18.8 °C
83 %
15.7 °C
1012.8 hPa 4.7 km/h
1 Bft
11.2 km/h
2 Bft
SSW -
0.0 mm/h
0.0 259 cm
03:00 Stark bewölkt2 18.9 °C
18.9 °C
83 %
15.7 °C
1012.6 hPa 4.7 km/h
1 Bft
11.2 km/h
2 Bft
SSW 0.00 mm
0.0 mm/h
0.0 259 cm
03:15 Stark bewölkt2 19.0 °C
19.0 °C
82 %
15.7 °C
1012.4 hPa 4.7 km/h
1 Bft
11.2 km/h
2 Bft
SSW -
0.0 mm/h
0.0 259 cm
03:30 Stark bewölkt2 19.1 °C
19.1 °C
81 %
15.6 °C
1012.3 hPa 6.5 km/h
2 Bft
14.4 km/h
3 Bft
SW -
0.0 mm/h
0.0 259 cm
03:45 Stark bewölkt2 19.3 °C
19.3 °C
80 %
15.6 °C
1012.1 hPa 6.5 km/h
2 Bft
11.2 km/h
2 Bft
SW -
0.0 mm/h
0.0 259 cm
04:00 Stark bewölkt2 19.4 °C
19.4 °C
79 %
15.6 °C
1012.0 hPa 9.7 km/h
2 Bft
25.9 km/h
4 Bft
W 0.00 mm
0.0 mm/h
0.0 259 cm
04:15 Stark bewölkt2 19.5 °C
19.5 °C
79 %
15.6 °C
1012.0 hPa 11.2 km/h
2 Bft
20.9 km/h
4 Bft
SW -
0.0 mm/h
0.0 259 cm
04:30 Stark bewölkt2 19.5 °C
19.5 °C
79 %
15.6 °C
1011.9 hPa 9.7 km/h
2 Bft
27.4 km/h
4 Bft
WSW -
0.0 mm/h
0.0 259 cm
04:45 Stark bewölkt2 19.7 °C
19.7 °C
78 %
15.6 °C
1011.9 hPa 9.7 km/h
2 Bft
20.9 km/h
4 Bft
SW -
0.0 mm/h
0.0 258 cm
05:00 Stark bewölkt2 19.7 °C
19.7 °C
78 %
15.6 °C
1011.9 hPa 11.2 km/h
2 Bft
20.9 km/h
4 Bft
SW 0.00 mm
0.0 mm/h
0.0 259 cm
05:15 Stark bewölkt2 19.7 °C
19.7 °C
78 %
15.6 °C
1011.9 hPa 11.2 km/h
2 Bft
24.1 km/h
4 Bft
SSW -
0.0 mm/h
0.0 258 cm
05:30 Stark bewölkt2 19.7 °C
19.7 °C
78 %
15.6 °C
1011.8 hPa 9.7 km/h
2 Bft
25.9 km/h
4 Bft
SW -
0.0 mm/h
0.0 258 cm
05:45 Stark bewölkt2 19.7 °C
19.7 °C
78 %
15.6 °C
1011.8 hPa 9.7 km/h
2 Bft
20.9 km/h
4 Bft
NW -
0.0 mm/h
0.0 259 cm
06:00 Stark bewölkt3 19.6 °C
19.6 °C
78 %
15.5 °C
1011.7 hPa 7.9 km/h
2 Bft
16.2 km/h
3 Bft
SW 0.00 mm
0.0 mm/h
0.0 258 cm
06:15 Stark bewölkt2 19.7 °C
19.7 °C
78 %
15.6 °C
1011.7 hPa 7.9 km/h
2 Bft
22.7 km/h
4 Bft
SW -
0.0 mm/h
0.0 258 cm
06:30 Stark bewölkt3 19.7 °C
19.7 °C
77 %
15.4 °C
1011.6 hPa 9.7 km/h
2 Bft
19.4 km/h
3 Bft
SSW -
0.0 mm/h
0.0 258 cm
06:45 Stark bewölkt2 19.8 °C
19.8 °C
77 %
15.5 °C
1011.8 hPa 9.7 km/h
2 Bft
22.7 km/h
4 Bft
SW -
0.0 mm/h
0.0 258 cm
07:00 Stark bewölkt2 19.8 °C
19.8 °C
77 %
15.5 °C
1011.8 hPa 6.5 km/h
2 Bft
17.6 km/h
3 Bft
WNW 0.00 mm
0.0 mm/h
0.0 258 cm
07:15 Stark bewölkt2 19.8 °C
19.8 °C
77 %
15.5 °C
1011.8 hPa 7.9 km/h
2 Bft
19.4 km/h
3 Bft
SW -
0.0 mm/h
0.0 258 cm
07:30 Stark bewölkt2 19.9 °C
19.9 °C
77 %
15.6 °C
1011.8 hPa 4.7 km/h
1 Bft
17.6 km/h
3 Bft
NW -
0.0 mm/h
0.0 258 cm
07:45 Stark bewölkt2 19.9 °C
19.9 °C
76 %
15.4 °C
1011.8 hPa 6.5 km/h
2 Bft
14.4 km/h
3 Bft
SSW -
0.0 mm/h
0.0 258 cm
08:00 Stark bewölkt2 20.0 °C
20.0 °C
76 %
15.6 °C
1011.8 hPa 4.7 km/h
1 Bft
24.1 km/h
4 Bft
SSW 0.00 mm
0.0 mm/h
0.0 257 cm
08:15 Stark bewölkt2 20.2 °C
20.2 °C
75 %
15.6 °C
1011.8 hPa 4.7 km/h
1 Bft
16.2 km/h
3 Bft
SSW -
0.0 mm/h
0.0 257 cm
08:30 Stark bewölkt2 20.4 °C
20.4 °C
74 %
15.6 °C
1011.8 hPa 6.5 km/h
2 Bft
14.4 km/h
3 Bft
W -
0.0 mm/h
1.0 257 cm
08:45 Stark bewölkt2 20.7 °C
20.7 °C
73 %
15.6 °C
1011.9 hPa 4.7 km/h
1 Bft
14.4 km/h
3 Bft
SSW -
0.0 mm/h
1.2 257 cm
09:00 Stark bewölkt2 20.9 °C
20.9 °C
72 %
15.6 °C
1011.8 hPa 9.7 km/h
2 Bft
19.4 km/h
3 Bft
SSW
0.0 mm/h
1.0 -- cm




-
-- cm




-
-- cm




-
-- cm





-- cm




-
-- cm




-
-- cm




-
-- cm





-- cm




-
-- cm




-
-- cm




-
-- cm





-- cm




-
-- cm




-
-- cm




-
-- cm





-- cm




-
-- cm




-
-- cm




-
-- cm





-- cm




-
-- cm




-
-- cm




-
-- cm





-- cm




-
-- cm




-
-- cm




-
-- cm





-- cm




-
-- cm




-
-- cm




-
-- cm





-- cm




-
-- cm




-
-- cm




-
-- cm





-- cm




-
-- cm




-
-- cm




-
-- cm





-- cm




-
-- cm




-
-- cm




-
-- cm





-- cm




-
-- cm




-
-- cm




-
-- cm





-- cm




-
-- cm




-
-- cm




-
-- cm





-- cm




-
-- cm




-
-- cm




-
-- cm





-- cm




-
-- cm




-
-- cm




-
-- cm





-- cm
Messwerte stehen ab 00:15 Uhr zur Verfügung.
Aus technischen Gründen wird die Niederschlagssumme der vorangegangenen Stunde erst um :30 der Folgestunde aktualisiert. Die Pegelstände werden ab 01:45 Uhr 15 Minuten zeitversetzt aktualisiert. Datenbasis Wetterzustand: ¹ Wetterstation Köln-Nippes (Stellwerk), ² powered by , ³ powered by OpenWeatherMap, CC BY-SA 4.0; Warnlage: DWD, Pegelonline, LANUV; Pegel Köln: Pegelonline
 
Extrem- und Durchschnittswerte
  Temperatur Luftfeuchte Luftdruck Wind Windböen Wind-
richtung
Regen UV-Index Pegel Köln KKT
Min

Max

Ø
17.5 °C
00:42 Uhr
20.9 °C
08:58 Uhr
19.3 °C
72.0 %
08:53 Uhr
90.0 %
00:45 Uhr
80.2 %
1011.6 hPa
06:04 Uhr
1013.8 hPa
00:18 Uhr
1012.3 hPa
 
 
13.0 km/h
05:18 Uhr
6.9 km/h
 
 
27.4 km/h
04:12 Uhr
 
 
 
SSW
 
 
 
 
0.18 mm
 
 
 
 
1.2
08:31 Uhr
 
257 cm
08:00 Uhr
260 cm
01:30 Uhr
 

NT
  gefühlt Taupunkt   Wind Windböen   Regenrate Ozon Sonne Mond
Min

Max

Ø
17.5 °C
00:42 Uhr
20.9 °C
08:58 Uhr
 
15.2 °C
00:01 Uhr
16.1 °C
01:13 Uhr
15.6 °C
   
 
3 Bft
05:18 Uhr
6.9 km/h
 
 
4 Bft
04:12 Uhr
 
   
 
0.0 mm/h
00:00 Uhr
 
 
Hürth
36 μg/m³
01:00 Uhr
 
▲ 05:26 Uhr
▼ 21:48 Uhr
▼ 05:19 Uhr
▲ 22:25 Uhr
KKT = Klimatologischer Kenntag: ET = Eistag, FT = Frosttag, KT = Kalter Tag, ST = Sommertag, HT = Hitzetag, TN = Tropennacht, NT = Niederschlagstag, SH = Schneehöhe (Max Tag); Datenbasis Ozon: LANUV, Land NRW, dl-de/by-2-0
 
Detaillierte Warnlage
WINDBÖEN
05.07.20, 08:00 Uhr bis 22:00 Uhr
Es treten Windböen mit Geschwindigkeiten um 55 km/h (15m/s, 30kn, Bft 7) aus südwestlicher Richtung auf. In Schauernähe sowie in exponierten Lagen muss mit Sturmböen um 65 km/h (18m/s, 35kn, Bft 8) gerechnet werden.















05.07.20

05.07.20

05.07.20

05.07.20

05.07.20

05.07.20

05.07.20
Datenbasis: DWD, Pegelonline, LANUV